This is the latest recevied weather packets stored in our database for station/object SR6WXP. If no packets are shown the sender has not sent any weather packets the latest 1 day(s).
| Time | Temp. | Humidity | Pressure | Rain* | Wind** | Luminosity | Snow |
|---|---|---|---|---|---|---|---|
| 1777947147 | 15° C | 56% | 987.6 hPa | - | 0.89 m/s, 117° | - | - |
| 1777946907 | 15° C | 57% | 987.6 hPa | - | 1.34 m/s, 118° | - | - |
| 1777946667 | 15° C | 57% | 987.6 hPa | - | 0.89 m/s, 128° | - | - |
| 1777946427 | 15° C | 56% | 987.7 hPa | - | 0.89 m/s, 137° | - | - |
| 1777946187 | 15° C | 56% | 987.7 hPa | - | 0.89 m/s, 112° | - | - |
| 1777945945 | 15° C | 56% | 987.7 hPa | - | 1.34 m/s, 111° | - | - |
| 1777945705 | 15° C | 56% | 987.7 hPa | - | 1.34 m/s, 110° | - | - |
| 1777945465 | 15.56° C | 56% | 987.7 hPa | - | 1.34 m/s, 115° | - | - |
| 1777945222 | 15.56° C | 56% | 987.7 hPa | - | 0.89 m/s, 114° | - | - |
| 1777944982 | 15.56° C | 56% | 987.7 hPa | - | 1.79 m/s, 113° | - | - |
| 1777944740 | 15.56° C | 56% | 987.7 hPa | - | 0.89 m/s, 119° | - | - |
| 1777944500 | 15.56° C | 56% | 987.8 hPa | - | 1.34 m/s, 114° | - | - |
| 1777944260 | 15.56° C | 55% | 987.8 hPa | - | 1.34 m/s, 116° | - | - |
| 1777944020 | 15.56° C | 56% | 987.8 hPa | - | 1.34 m/s, 123° | - | - |
| 1777943780 | 15.56° C | 55% | 987.9 hPa | - | 0.89 m/s, 120° | - | - |
| 1777943298 | 16.11° C | 55% | 987.8 hPa | - | 1.34 m/s, 110° | - | - |
| 1777943057 | 16.11° C | 55% | 987.9 hPa | - | 0.89 m/s, 123° | - | - |
| 1777942817 | 16.11° C | 55% | 987.9 hPa | - | 0.45 m/s, 124° | - | - |
| 1777942577 | 16.11° C | 55% | 987.9 hPa | - | 1.34 m/s, 116° | - | - |
| 1777942335 | 16.11° C | 54% | 988 hPa | - | 0.89 m/s, 117° | - | - |
| 1777942095 | 16.67° C | 54% | 987.9 hPa | - | 1.34 m/s, 110° | - | - |
| 1777941855 | 16.67° C | 54% | 988 hPa | - | 1.34 m/s, 114° | - | - |
| 1777941615 | 16.67° C | 53% | 988 hPa | - | 1.34 m/s, 110° | - | - |
| 1777941375 | 16.67° C | 53% | 988 hPa | - | 1.34 m/s, 109° | - | - |
| 1777941133 | 16.67° C | 52% | 988 hPa | - | 1.34 m/s, 109° | - | - |
* Rain since midnight (hover to see other rain measurements)
** Current wind speed in m/s (hover to see current wind gust speed)